[[{"header":{"parameterUnit":"m.s-1","parameterCategory":2,"la1":30.2991,"la2":30.254,"lo1":-89.0895,"lo2":-89.0444,"dy":0.0017,"dx":0.0017,"nx":28,"ny":28,"refTime":"2026-01-01T03:00:00:Z","depth":"0","parameterNumber":2,"parameterNumberName":"U-component_of_CURRENTS"},"data":[0,0,0,0,0,0,0,0,0,0,0,0,0,0,0,0,0,0,0,0,0,0,0,0,0,0,0,0,0,0,0,0,0,0,0,0,0,0,0,0,0,0,0,0,0,0,0,0,0,0,0,0,0,0,0,0,0,0,0.1749,0.1748,0,0.1714,0.1714,0.1714,0.1705,0.1705,0.1705,0.1705,0.169,0.169,0.169,0,0,0,0,0,0,0,0,0,0,0,0,0,0.1819,0.1818,0.1749,0.1748,0.1747,0.1714,0.1714,0.1714,0.1705,0.1705,0.1705,0.1705,0.169,0.169,0.169,0,0,0,0,0,0,0,0,0,0,0,0,0,0.179,0.1817,0.1749,0.1736,0.1734,0.1714,0.1714,0.1714,0.1705,0.1705,0.1705,0.1705,0.169,0.169,0.1689,0.1691,0,0,0.1688,0.1688,0,0,0,0,0,0,0,0,0.1792,0.1788,0.1739,0.1737,0.1735,0.171,0.1733,0.1706,0.1705,0.1721,0.1705,0.1705,0.1696,0.1695,0.1695,0.1691,0.169,0.1688,0.1688,0.1688,0.1688,0,0,0,0,0,0,0,0.1794,0.179,0.1739,0.1738,0.1735,0.1735,0.1731,0.1728,0.1714,0.1719,0.1718,0.1707,0.1696,0.1695,0.1694,0.169,0.1688,0.1688,0.1688,0.1688,0.1748,0.175,0,0,0,0,0,0,0.179,0.1792,0.174,0.1738,0.1759,0.1734,0.1729,0.1722,0.1713,0.171,0.1707,0.1707,0.1696,0.1695,0.1694,0.1736,0.1688,0.1687,0.1687,0.1747,0.1749,0.1751,0,0,0,0,0,0,0.1791,0.1786,0.1742,0.1761,0.1754,0.1732,0.1724,0.1721,0.1722,0.1703,0.1701,0.1711,0.1696,0.1694,0.1705,0.1733,0.1687,0.1687,0.1744,0.1747,0.175,0.1793,0,0,0,0,0,0,0.1794,0.1787,0.1783,0.176,0.1753,0.174,0.1723,0.172,0.1714,0.1713,0.1706,0.1704,0.1695,0.1706,0.1704,0.1732,0.1687,0.1742,0.1746,0.1749,0.179,0.1797,0.1804,0,0,0,0,0,0.1796,0.1791,0.1783,0.1777,0.1748,0.174,0.1738,0.1723,0.1714,0.1723,0.172,0.1704,0.1728,0.1706,0.1705,0.1733,0.174,0.1745,0.1749,0.1786,0.1796,0.1804,0,0,0,0,0,0,0.1825,0.1789,0.178,0.1766,0.1758,0.1737,0.1736,0.1727,0.1731,0.1728,0.1716,0.1715,0.1739,0.1733,0.171,0.1765,0.1736,0.174,0.1765,0.1774,0.1781,0.1761,0.1686,0,0,0,0,0,0.1827,0.1813,0.1788,0.178,0.1774,0.1757,0.1752,0.1742,0.1736,0.1737,0.1732,0.1737,0.1755,0.176,0.1767,0.1788,0.1788,0.1811,0.1818,0.1824,0.181,0.1856,0.1865,0.1765,0.1764,0.1764,0,0,0.1834,0.1814,0.1805,0.1785,0.1775,0.1768,0.1755,0.1747,0.1749,0.1735,0.1743,0.1756,0.1767,0.1796,0.1807,0.1792,0.1856,0.183,0.1834,0.1816,0.1861,0.1871,0.1879,0.1767,0.1767,0.1766,0,0,0.1837,0.1826,0.1812,0.1805,0.1786,0.1779,0.1778,0.1763,0.1768,0.1775,0.1779,0.1805,0.1815,0.1837,0.1848,0.1899,0.1891,0.1914,0.1931,0.1977,0.1985,0.1992,0.201,0.2018,0.1919,0.1919,0.1919,0,0.185,0.1822,0.1812,0.1799,0.1791,0.1785,0.1776,0.1784,0.1777,0.1788,0.1782,0.1827,0.1834,0.1883,0.1905,0.1912,0.1929,0.1895,0.1985,0.1992,0.1998,0.2014,0.2023,0.1921,0.1921,0.1921,0.1921,0,0.1834,0.1818,0.1814,0.1793,0.1795,0.1786,0.1789,0.1801,0.1804,0.1808,0.1851,0.1872,0.1898,0.1923,0.1924,0.1988,0.1982,0.1987,0.1957,0.201,0.2025,0.2033,0.1925,0.1924,0.1923,0.1923,0,0,0.1839,0.1806,0.1803,0.1792,0.1786,0.1784,0.1804,0.1817,0.1833,0.1851,0.1882,0.1926,0.194,0.1955,0.198,0.202,0.2085,0.2024,0.2025,0.203,0.2175,0.1989,0.1979,0.2114,0.2116,0.2117,0.2167,0,0.1827,0.1797,0.1789,0.1777,0.1764,0.1777,0.1799,0.1819,0.1842,0.1876,0.1918,0.1955,0.1955,0.1982,0.2024,0.2072,0.2108,0.2069,0.213,0.2131,0.1951,0.1983,0.1841,0.1857,0.2175,0.2176,0.2177,0,0.1803,0.1787,0.1764,0.1762,0.176,0.1763,0.1796,0.1814,0.1871,0.1893,0.1938,0.1971,0.2035,0.2032,0.2121,0.2101,0.2134,0.2165,0.2168,0.1976,0.1959,0.1856,0.1859,0.1769,0.2189,0.2188,0.2187,0,0.1791,0.1769,0.1749,0.1744,0.1747,0.1756,0.1771,0.1818,0.1845,0.1909,0.1938,0.2008,0.2047,0.211,0.2148,0.2155,0.2232,0.2254,0.2116,0.2104,0.1979,0.195,0.1884,0.2314,0.2314,0.2314,0.2314,0,0.1768,0.1753,0.174,0.1727,0.1729,0.1743,0.1764,0.1794,0.185,0.1882,0.1944,0.1981,0.2071,0.2118,0.2162,0.2133,0.2242,0.2104,0.21,0.1988,0.1961,0.187,0.1851,0.2316,0.2316,0.2315,0.2315,0,0.1749,0.1734,0.1713,0.1712,0.1716,0.172,0.1751,0.1773,0.1826,0.1874,0.1899,0.1979,0.2011,0.2066,0.2155,0.2117,0.204,0.2104,0.1936,0.1907,0.1637,0.1626,0.1507,0.1484,0.1955,0.1951,0.1947,0,0.1732,0.1715,0.1702,0.1695,0.169,0.1699,0.1713,0.1758,0.1782,0.186,0.1883,0.1929,0.1923,0.194,0.1895,0.1886,0.189,0.174,0.1704,0.1572,0.1563,0.1544,0.1537,0.1587,0.1581,0.1576,0.1572,0,0.1713,0.1704,0.169,0.1672,0.167,0.1674,0.1692,0.1707,0.1761,0.179,0.1814,0.1814,0.1768,0.1647,0.1582,0.1582,0.1584,0.1624,0.1567,0.1302,0.1206,0.1197,0.1599,0.1525,0.153,0.1534,0.1536,0.1538,0.1706,0.1687,0.1664,0.164,0.1641,0.1637,0.1623,0.1643,0.1656,0.1655,0.1707,0.1617,0.1461,0.1318,0.13,0.1102,0.1223,0.1047,0.1062,0.107,0.0967,0.1212,0.1069,0.107,0.1072,0.1074,0.1075,0,0.1679,0.1653,0.1635,0.1597,0.1575,0.1592,0.1596,0.1566,0.1538,0.15,0.1477,0.1224,0.1038,0.0917,0.0675,0.0566,0.0621,0.0547,0.0544,0.0586,0.0869,0.0767,0.0452,0.0452,0.0452,0.0452,0.0452,0.0452,0.1667,0.1621,0.1593,0.153,0.1509,0.1464,0.145,0.1412,0.1359,0.1179,0.0991,0.0896,0.0674,0.0381,0.0179,0.0185,0.0204,0.0111,0.0215,0.0437,0.0488,0.0536,0.0435,0.0056,0.0055,-0.0093,-0.0095,-0.0096]},{"header":{"parameterUnit":"m.s-1","parameterCategory":2,"la1":30.2991,"la2":30.254,"lo1":-89.0895,"lo2":-89.0444,"dy":0.0017,"dx":0.0017,"nx":28,"ny":28,"refTime":"2026-01-01T03:00:00:Z","depth":"0","parameterNumber":3,"parameterNumberName":"V-component_of_CURRENTS"},"data":[0,0,0,0,0,0,0,0,0,0,0,0,0,0,0,0,0,0,0,0,0,0,0,0,0,0,0,0,0,0,0,0,0,0,0,0,0,0,0,0,0,0,0,0,0,0,0,0,0,0,0,0,0,0,0,0,0,0,0.031,0.031,0,0.0305,0.0305,0.0305,0.0294,0.0294,0.0294,0.0293,0.0274,0.0273,0.0273,0,0,0,0,0,0,0,0,0,0,0,0,0,0.0294,0.0295,0.031,0.031,0.031,0.0305,0.0305,0.0305,0.0294,0.0294,0.0294,0.0293,0.0274,0.0273,0.0273,0,0,0,0,0,0,0,0,0,0,0,0,0,0.0297,0.0295,0.031,0.0303,0.0302,0.0305,0.0305,0.0305,0.0294,0.0294,0.0293,0.0293,0.0274,0.0273,0.0273,0.028,0,0,0.0272,0.0272,0,0,0,0,0,0,0,0,0.0297,0.0298,0.0304,0.0303,0.0303,0.0299,0.0293,0.0296,0.0294,0.0298,0.0293,0.0293,0.028,0.028,0.0281,0.0279,0.0279,0.0272,0.0272,0.0272,0.0271,0,0,0,0,0,0,0,0.0297,0.0298,0.0309,0.0304,0.0303,0.0295,0.0295,0.0293,0.0292,0.0298,0.0297,0.0295,0.028,0.0282,0.0281,0.0278,0.0272,0.0272,0.0271,0.0271,0.0298,0.0299,0,0,0,0,0,0,0.0297,0.0298,0.0309,0.0309,0.0298,0.0296,0.0296,0.0301,0.0293,0.0291,0.0296,0.0295,0.0282,0.0281,0.028,0.0304,0.0272,0.0271,0.0271,0.0297,0.0299,0.03,0,0,0,0,0,0,0.0297,0.0299,0.0309,0.0302,0.0303,0.0296,0.0303,0.0302,0.0302,0.0291,0.0289,0.0296,0.0282,0.028,0.0284,0.0302,0.0271,0.0271,0.0296,0.0298,0.0299,0.0342,0,0,0,0,0,0,0.0297,0.0299,0.0302,0.0302,0.0303,0.0317,0.0303,0.0302,0.0301,0.03,0.0291,0.0289,0.0281,0.0285,0.0283,0.0301,0.027,0.0295,0.0297,0.0299,0.0339,0.0344,0.0349,0,0,0,0,0,0.0296,0.0306,0.0303,0.0304,0.0309,0.0318,0.0318,0.0312,0.0301,0.0309,0.0302,0.0289,0.0295,0.0285,0.0283,0.0302,0.0294,0.0296,0.0298,0.0337,0.0343,0.0349,0,0,0,0,0,0,0.03,0.0305,0.0302,0.0312,0.0316,0.0316,0.032,0.0314,0.0314,0.031,0.0298,0.0296,0.0306,0.0299,0.0288,0.0315,0.0294,0.0296,0.0324,0.033,0.0334,0.0347,0.027,0,0,0,0,0,0.0303,0.0312,0.0314,0.0322,0.0326,0.0322,0.0324,0.032,0.032,0.0319,0.0314,0.0311,0.0315,0.0317,0.0317,0.033,0.0332,0.0343,0.0347,0.0352,0.0362,0.0377,0.0384,0.0306,0.0306,0.0306,0,0,0.0305,0.031,0.0314,0.0324,0.0326,0.0339,0.0323,0.0328,0.0341,0.0317,0.0331,0.0325,0.0322,0.0338,0.0343,0.0334,0.0377,0.0354,0.0358,0.0366,0.038,0.0388,0.0394,0.0308,0.0308,0.0307,0,0,0.032,0.0321,0.0335,0.0341,0.0346,0.0348,0.0351,0.0353,0.0357,0.0368,0.0357,0.0365,0.0366,0.0375,0.0377,0.041,0.04,0.0407,0.0445,0.046,0.0466,0.0472,0.0492,0.0499,0.0413,0.0413,0.0413,0,0.0321,0.0341,0.034,0.0355,0.0364,0.0355,0.0374,0.038,0.0383,0.0395,0.0378,0.0397,0.0388,0.0421,0.0431,0.0422,0.0428,0.0422,0.0467,0.0472,0.0477,0.0496,0.0504,0.0415,0.0415,0.0415,0.0414,0,0.0347,0.0361,0.0371,0.039,0.0401,0.0415,0.0423,0.0435,0.0433,0.0439,0.0465,0.0458,0.0473,0.0471,0.0458,0.0497,0.0489,0.0468,0.0451,0.0488,0.0505,0.0512,0.0418,0.0418,0.0417,0.0416,0,0,0.0355,0.0384,0.0387,0.0406,0.0421,0.0436,0.0461,0.0488,0.0513,0.0513,0.0553,0.0553,0.055,0.0553,0.0543,0.0553,0.0591,0.0528,0.0528,0.0549,0.063,0.0615,0.062,0.0575,0.0576,0.0577,0.063,0,0.0376,0.0413,0.0423,0.0461,0.0484,0.0491,0.0521,0.0542,0.0556,0.0591,0.0594,0.0622,0.0582,0.0596,0.0601,0.0595,0.061,0.0579,0.0592,0.0593,0.0574,0.0628,0.0626,0.0672,0.0637,0.0638,0.0639,0,0.04,0.0424,0.0464,0.0509,0.052,0.0542,0.0592,0.0618,0.0659,0.0672,0.0696,0.0698,0.0726,0.0682,0.0697,0.0678,0.0662,0.065,0.0651,0.0627,0.059,0.0628,0.0685,0.0694,0.0649,0.0648,0.0647,0,0.0414,0.0456,0.0492,0.0504,0.0549,0.0574,0.0601,0.0642,0.0681,0.073,0.0766,0.0783,0.0811,0.0791,0.0761,0.0735,0.0773,0.0733,0.0708,0.0707,0.0704,0.07,0.0771,0.0749,0.0749,0.0748,0.0748,0,0.0437,0.0466,0.0501,0.0521,0.0575,0.0597,0.0659,0.0687,0.0745,0.0808,0.0812,0.0868,0.0838,0.0852,0.0805,0.0788,0.081,0.0734,0.0726,0.0719,0.0716,0.072,0.0724,0.075,0.075,0.075,0.0749,0,0.045,0.0469,0.0515,0.0563,0.0583,0.0622,0.0695,0.0742,0.0789,0.0875,0.09,0.0949,0.0969,0.0933,0.0916,0.0857,0.0843,0.0814,0.0811,0.08,0.0766,0.0772,0.085,0.0878,0.0802,0.0802,0.0802,0,0.0463,0.0487,0.0543,0.0574,0.0597,0.0656,0.0702,0.0759,0.0817,0.0928,0.098,0.1031,0.1072,0.1044,0.0958,0.0895,0.0882,0.0839,0.0782,0.0787,0.0788,0.0798,0.0817,0.0802,0.0802,0.0802,0.0802,0,0.0491,0.0507,0.0543,0.06,0.0648,0.071,0.0782,0.0835,0.0918,0.1,0.1107,0.115,0.1134,0.1081,0.0986,0.0927,0.0866,0.0836,0.085,0.081,0.0821,0.0835,0.0746,0.0802,0.0802,0.0802,0.0802,0.0802,0.0511,0.0535,0.0576,0.0629,0.0687,0.0757,0.0813,0.09,0.1003,0.1131,0.1176,0.1229,0.1162,0.1038,0.0985,0.0874,0.0884,0.0818,0.0832,0.0847,0.0859,0.0772,0.0804,0.0804,0.0804,0.0804,0.0804,0,0.0527,0.055,0.0603,0.0665,0.0724,0.0754,0.0862,0.093,0.1051,0.1152,0.1243,0.1203,0.1144,0.1049,0.0916,0.0871,0.0869,0.085,0.0872,0.0895,0.0825,0.0808,0.0832,0.0832,0.0832,0.0832,0.0832,0.0832,0.0536,0.0571,0.059,0.0674,0.0724,0.0808,0.0866,0.0982,0.1065,0.1169,0.117,0.1165,0.1086,0.1001,0.0928,0.0905,0.0936,0.0908,0.0942,0.0882,0.088,0.0878,0.0863,0.0898,0.0899,0.1014,0.1015,0.1015]}],[{"header":{"parameterUnit":"m.s-1","parameterCategory":2,"la1":30.2991,"la2":30.254,"lo1":-89.0895,"lo2":-89.0444,"dy":0.0017,"dx":0.0017,"nx":28,"ny":28,"refTime":"2026-01-01T03:00:00:Z","depth":"2","parameterNumber":2,"parameterNumberName":"U-component_of_CURRENTS"},"data":[0,0,0,0,0,0,0,0,0,0,0,0,0,0,0,0,0,0,0,0,0,0,0,0,0,0,0,0,0,0,0,0,0,0,0,0,0,0,0,0,0,0,0,0,0,0,0,0,0,0,0,0,0,0,0,0,0,0,0.1192,0.1192,0,0.1177,0.1177,0.1177,0.1177,0.1177,0.1177,0.1177,0.1165,0.1165,0.1164,0,0,0,0,0,0,0,0,0,0,0,0,0,0.1219,0.1218,0.1192,0.1192,0.1191,0.1177,0.1177,0.1177,0.1177,0.1177,0.1177,0.1177,0.1165,0.1165,0.1164,0,0,0,0,0,0,0,0,0,0,0,0,0,0.1207,0.1218,0.1192,0.1188,0.1187,0.1177,0.1177,0.1176,0.1177,0.1177,0.1177,0.1177,0.1165,0.1165,0.1164,0.116,0,0,0.1163,0.1162,0,0,0,0,0,0,0,0,0.1208,0.1207,0.1189,0.1188,0.1188,0.1177,0.1181,0.1171,0.1177,0.1183,0.1177,0.1177,0.1168,0.1167,0.1167,0.116,0.1159,0.1162,0.1162,0.1162,0.1162,0,0,0,0,0,0,0,0.1209,0.1207,0.1188,0.1189,0.1188,0.1186,0.1185,0.1179,0.1177,0.1182,0.1182,0.1177,0.1168,0.1167,0.1167,0.1159,0.1162,0.1162,0.1162,0.1162,0.1208,0.121,0,0,0,0,0,0,0.1207,0.1208,0.1188,0.1187,0.1196,0.1185,0.1184,0.1182,0.1177,0.1176,0.1177,0.1177,0.1168,0.1167,0.1166,0.1201,0.1162,0.1161,0.1161,0.1207,0.1209,0.121,0,0,0,0,0,0,0.1207,0.1205,0.1189,0.1196,0.1193,0.1185,0.1182,0.1182,0.1184,0.1172,0.1172,0.1181,0.1168,0.1167,0.1176,0.1199,0.1161,0.1161,0.1205,0.1207,0.121,0.1246,0,0,0,0,0,0,0.1208,0.1206,0.1209,0.1195,0.1193,0.1188,0.1182,0.1181,0.118,0.118,0.1175,0.1174,0.1168,0.1177,0.1176,0.1198,0.116,0.1203,0.1206,0.1209,0.1243,0.1249,0.1255,0,0,0,0,0,0.1209,0.1212,0.1209,0.1207,0.1195,0.1188,0.1187,0.1182,0.118,0.1185,0.1188,0.1174,0.1195,0.1178,0.1176,0.1198,0.1202,0.1205,0.1209,0.124,0.1248,0.1254,0,0,0,0,0,0,0.1227,0.1211,0.1208,0.1207,0.12,0.1188,0.1191,0.1185,0.119,0.1196,0.1184,0.1184,0.1204,0.1198,0.1179,0.1224,0.12,0.1203,0.1225,0.1232,0.1238,0.1229,0.116,0,0,0,0,0,0.1231,0.1226,0.1215,0.1213,0.1213,0.1203,0.1201,0.1199,0.1198,0.12,0.1196,0.1204,0.1217,0.122,0.1228,0.1242,0.1243,0.1261,0.1267,0.1272,0.1266,0.1296,0.1304,0.1222,0.1222,0.1222,0,0,0.1235,0.1226,0.1224,0.1216,0.1213,0.1211,0.1203,0.1206,0.121,0.1198,0.1211,0.1221,0.1226,0.1251,0.126,0.1247,0.1298,0.1276,0.128,0.1272,0.1301,0.1309,0.1316,0.1224,0.1224,0.1223,0,0,0.1238,0.1238,0.1236,0.1232,0.1228,0.1224,0.1225,0.1221,0.1231,0.1241,0.1245,0.1267,0.1273,0.1289,0.1296,0.1338,0.1329,0.1348,0.1368,0.1398,0.1404,0.141,0.1427,0.1434,0.1351,0.1351,0.1351,0,0.1247,0.1237,0.1235,0.1233,0.123,0.1229,0.123,0.1238,0.1239,0.1253,0.1251,0.1289,0.1292,0.1328,0.1348,0.135,0.1361,0.1337,0.1404,0.141,0.1415,0.1431,0.1438,0.1353,0.1353,0.1353,0.1352,0,0.1242,0.124,0.1241,0.1234,0.1237,0.1238,0.1246,0.1259,0.1269,0.1277,0.1318,0.1334,0.1356,0.1371,0.1369,0.1417,0.1412,0.1407,0.1381,0.1425,0.1439,0.1446,0.1356,0.1355,0.1355,0.1354,0,0,0.1247,0.1238,0.1238,0.1235,0.1239,0.1237,0.126,0.1277,0.1295,0.1318,0.1347,0.1383,0.1399,0.1409,0.1423,0.1449,0.1499,0.1445,0.1446,0.1453,0.1562,0.1419,0.1412,0.151,0.1511,0.1512,0.1559,0,0.1243,0.1235,0.1236,0.1233,0.1231,0.1244,0.1262,0.1283,0.131,0.1341,0.138,0.1414,0.1413,0.1437,0.1464,0.1493,0.1518,0.1487,0.1525,0.1526,0.1386,0.1415,0.1269,0.1285,0.1565,0.1566,0.1567,0,0.1235,0.123,0.1227,0.1231,0.1234,0.1238,0.127,0.1289,0.134,0.1365,0.141,0.1438,0.149,0.1482,0.1547,0.1529,0.1547,0.1563,0.1565,0.1418,0.1394,0.1287,0.1287,0.1578,0.1577,0.1576,0.1575,0,0.1226,0.1223,0.122,0.1219,0.1227,0.1241,0.1256,0.1299,0.1325,0.139,0.1418,0.1477,0.1511,0.1552,0.1572,0.1575,0.1626,0.1637,0.1524,0.1515,0.1387,0.1363,0.1677,0.1677,0.1677,0.1677,0.1677,0,0.1212,0.1209,0.1215,0.1209,0.122,0.1237,0.1265,0.1292,0.1342,0.137,0.1434,0.1461,0.1531,0.1562,0.1586,0.1555,0.1638,0.1521,0.1514,0.1395,0.1372,0.1619,0.1612,0.1679,0.1679,0.1678,0.1678,0,0.1198,0.1198,0.1193,0.1204,0.1212,0.1223,0.1257,0.1276,0.1331,0.1374,0.1398,0.1463,0.1492,0.1532,0.1586,0.155,0.1554,0.1522,0.1361,0.1331,0.1428,0.1423,0.142,0.1415,0.1411,0.1408,0.1405,0,0.1186,0.118,0.1188,0.1187,0.1192,0.1212,0.1225,0.1269,0.1287,0.136,0.1373,0.1419,0.1416,0.1422,0.1373,0.1359,0.1455,0.1209,0.1174,0.1407,0.1401,0.1402,0.1402,0.1044,0.1038,0.1034,0.103,0,0.1165,0.117,0.1169,0.1165,0.1171,0.1178,0.1199,0.1207,0.1258,0.1279,0.1291,0.1295,0.1272,0.1162,0.1116,0.1096,0.1195,0.111,0.142,0.1102,0.1047,0.1043,0.1056,0.0989,0.0993,0.0996,0.0999,0.1,0.1156,0.1147,0.1143,0.1136,0.114,0.1132,0.1118,0.113,0.1131,0.1131,0.1171,0.1117,0.1083,0.0922,0.0859,0.0798,0.0905,0.0868,0.0885,0.0907,0.0825,0.0763,0.0638,0.0639,0.0641,0.0643,0.0644,0,0.1128,0.1118,0.111,0.109,0.1067,0.1091,0.1085,0.1045,0.1007,0.1,0.0972,0.0827,0.0708,0.0694,0.0515,0.0463,0.0501,0.0447,0.0507,0.0544,0.0579,0.0485,0.0206,0.0205,0.0204,0.0203,0,0,0.1112,0.1084,0.1069,0.1015,0.1007,0.0954,0.0936,0.0886,0.085,0.0768,0.0707,0.0718,0.068,0.0474,0.0394,0.0278,0.0429,0.025,0.0595,0.0706,0.0741,0.0799,0.0691,0,0,0,0,0]},{"header":{"parameterUnit":"m.s-1","parameterCategory":2,"la1":30.2991,"la2":30.254,"lo1":-89.0895,"lo2":-89.0444,"dy":0.0017,"dx":0.0017,"nx":28,"ny":28,"refTime":"2026-01-01T03:00:00:Z","depth":"2","parameterNumber":3,"parameterNumberName":"V-component_of_CURRENTS"},"data":[0,0,0,0,0,0,0,0,0,0,0,0,0,0,0,0,0,0,0,0,0,0,0,0,0,0,0,0,0,0,0,0,0,0,0,0,0,0,0,0,0,0,0,0,0,0,0,0,0,0,0,0,0,0,0,0,0,0,0.0134,0.0134,0,0.0138,0.0138,0.0138,0.0134,0.0134,0.0134,0.0134,0.0129,0.0129,0.0129,0,0,0,0,0,0,0,0,0,0,0,0,0,0.0114,0.0114,0.0134,0.0134,0.0134,0.0138,0.0138,0.0138,0.0134,0.0134,0.0134,0.0134,0.0129,0.0129,0.0129,0,0,0,0,0,0,0,0,0,0,0,0,0,0.012,0.0115,0.0134,0.0133,0.0133,0.0138,0.0138,0.0138,0.0134,0.0134,0.0134,0.0134,0.0129,0.0129,0.0128,0.0132,0,0,0.0128,0.0128,0,0,0,0,0,0,0,0,0.012,0.0121,0.0133,0.0133,0.0133,0.0136,0.0129,0.0136,0.0134,0.0133,0.0134,0.0133,0.0131,0.013,0.0131,0.0132,0.0131,0.0128,0.0128,0.0128,0.0128,0,0,0,0,0,0,0,0.012,0.0121,0.0135,0.0133,0.0133,0.0129,0.013,0.013,0.0132,0.0133,0.0133,0.0134,0.013,0.0131,0.0131,0.0131,0.0128,0.0128,0.0128,0.0128,0.0141,0.0142,0,0,0,0,0,0,0.0121,0.0121,0.0135,0.0135,0.0126,0.013,0.0131,0.0135,0.0132,0.0132,0.0134,0.0134,0.0131,0.0131,0.0131,0.0146,0.0128,0.0128,0.0128,0.0141,0.0141,0.0142,0,0,0,0,0,0,0.012,0.0122,0.0135,0.0128,0.013,0.0131,0.0135,0.0135,0.0136,0.0134,0.0133,0.0136,0.0131,0.0131,0.0133,0.0145,0.0128,0.0128,0.014,0.0141,0.0142,0.0169,0,0,0,0,0,0,0.012,0.0122,0.0124,0.0128,0.013,0.014,0.0135,0.0135,0.0137,0.0137,0.0134,0.0134,0.0131,0.0133,0.0133,0.0145,0.0128,0.014,0.0141,0.0141,0.0168,0.017,0.0173,0,0,0,0,0,0.0119,0.0125,0.0125,0.0126,0.0134,0.0141,0.0141,0.0141,0.0137,0.014,0.0138,0.0134,0.0138,0.0134,0.0133,0.0145,0.014,0.0141,0.0141,0.0166,0.017,0.0173,0,0,0,0,0,0,0.0116,0.0125,0.0125,0.0132,0.0137,0.014,0.0143,0.0142,0.0143,0.0142,0.0138,0.0137,0.0145,0.014,0.0135,0.015,0.0138,0.0139,0.0157,0.0161,0.0163,0.0175,0.0128,0,0,0,0,0,0.0117,0.0124,0.013,0.0136,0.0139,0.0141,0.0143,0.0144,0.0145,0.0145,0.0144,0.0144,0.0148,0.0149,0.015,0.0158,0.0156,0.0165,0.0168,0.017,0.0179,0.0183,0.0187,0.0144,0.0144,0.0144,0,0,0.0116,0.0123,0.0126,0.0136,0.0139,0.0149,0.0142,0.0148,0.0157,0.0145,0.0155,0.0152,0.0152,0.0162,0.0165,0.0159,0.0181,0.0171,0.0173,0.0181,0.0184,0.0188,0.0192,0.0145,0.0145,0.0145,0,0,0.0123,0.0126,0.0136,0.0142,0.015,0.0154,0.0156,0.0161,0.0165,0.0173,0.0169,0.0174,0.0176,0.0182,0.0184,0.0201,0.0194,0.0199,0.0223,0.0226,0.023,0.0233,0.0236,0.0239,0.0201,0.0201,0.0201,0,0.0121,0.0137,0.0139,0.0151,0.016,0.0157,0.0172,0.0176,0.0181,0.0191,0.018,0.0195,0.0189,0.0211,0.0216,0.0209,0.0207,0.0211,0.023,0.0233,0.0236,0.0238,0.0242,0.0202,0.0202,0.0202,0.0202,0,0.0138,0.0149,0.0156,0.0173,0.0182,0.0193,0.0202,0.0211,0.0213,0.0219,0.0237,0.0231,0.0243,0.024,0.0233,0.0254,0.0245,0.0233,0.0224,0.0242,0.0243,0.0246,0.0204,0.0204,0.0203,0.0203,0,0,0.0137,0.0163,0.0166,0.0181,0.0196,0.0208,0.0226,0.0247,0.0268,0.0267,0.0296,0.0295,0.0294,0.0296,0.0288,0.0289,0.0302,0.027,0.027,0.0276,0.0311,0.0296,0.0297,0.0292,0.0292,0.0293,0.0303,0,0.015,0.0179,0.0189,0.0219,0.0236,0.0245,0.0267,0.0284,0.0297,0.0322,0.0322,0.0343,0.0315,0.0326,0.0322,0.0311,0.0311,0.0301,0.029,0.029,0.0276,0.0301,0.0286,0.0294,0.0306,0.0307,0.0307,0,0.0165,0.0185,0.0216,0.0252,0.0261,0.0278,0.0318,0.0338,0.0368,0.038,0.0397,0.0398,0.041,0.038,0.0372,0.0366,0.0343,0.0327,0.0327,0.0308,0.0281,0.0277,0.0298,0.0312,0.0311,0.0311,0.0311,0,0.017,0.0205,0.0232,0.0244,0.0281,0.0301,0.0324,0.0356,0.0387,0.0423,0.0451,0.0454,0.0469,0.0442,0.0407,0.0393,0.0392,0.0369,0.0335,0.0333,0.0317,0.0313,0.0363,0.0363,0.0363,0.0363,0.0363,0,0.0184,0.0206,0.0238,0.0254,0.0296,0.0317,0.0365,0.0388,0.0433,0.0482,0.0484,0.052,0.0485,0.0479,0.0433,0.0397,0.0413,0.035,0.0339,0.0325,0.0322,0.0332,0.0329,0.0364,0.0364,0.0364,0.0364,0,0.0187,0.0206,0.0242,0.0283,0.03,0.0331,0.0393,0.0431,0.0469,0.0535,0.0553,0.0578,0.0573,0.0529,0.0491,0.044,0.04,0.038,0.0366,0.0354,0.0332,0.0329,0.0351,0.0351,0.0351,0.035,0.035,0,0.0192,0.0209,0.0259,0.0286,0.0307,0.0356,0.0396,0.0444,0.0492,0.0573,0.061,0.0629,0.0641,0.0579,0.0499,0.0425,0.041,0.0357,0.0327,0.0345,0.0333,0.0331,0.0329,0.0316,0.0315,0.0315,0.0315,0,0.02,0.0217,0.0248,0.0299,0.0342,0.0398,0.0459,0.0503,0.0574,0.0629,0.0695,0.0708,0.0662,0.0587,0.0486,0.0424,0.0366,0.0347,0.0381,0.0318,0.0312,0.0299,0.0299,0.0311,0.0312,0.0312,0.0312,0.0312,0.0207,0.0227,0.0266,0.0316,0.0369,0.0435,0.0485,0.0555,0.0632,0.0716,0.0732,0.0739,0.0668,0.0526,0.0453,0.0361,0.0357,0.0304,0.0305,0.0307,0.0298,0.0291,0.0285,0.0285,0.0285,0.0285,0.0286,0,0.0211,0.0238,0.0282,0.0344,0.0398,0.0429,0.0525,0.0576,0.0664,0.0721,0.0763,0.0677,0.0604,0.052,0.0385,0.031,0.03,0.0278,0.0282,0.0284,0.0287,0.0277,0.0259,0.0259,0.0259,0.0259,0,0,0.0215,0.0248,0.027,0.0351,0.0401,0.0476,0.0531,0.0612,0.0665,0.0711,0.0707,0.0707,0.0607,0.0509,0.0414,0.034,0.0328,0.0317,0.0339,0.0356,0.036,0.0295,0.0282,0,0,0,0,0]}],[{"header":{"parameterUnit":"m.s-1","parameterCategory":2,"la1":30.2991,"la2":30.254,"lo1":-89.0895,"lo2":-89.0444,"dy":0.0017,"dx":0.0017,"nx":28,"ny":28,"refTime":"2026-01-01T03:00:00:Z","depth":"4","parameterNumber":2,"parameterNumberName":"U-component_of_CURRENTS"},"data":[0,0,0,0,0,0,0,0,0,0,0,0,0,0,0,0,0,0,0,0,0,0,0,0,0,0,0,0,0,0,0,0,0,0,0,0,0,0,0,0,0,0,0,0,0,0,0,0,0,0,0,0,0,0,0,0,0,0,0.0546,0.0546,0,0.0553,0.0553,0.0553,0.0565,0.0565,0.0566,0.0566,0.0571,0.0571,0.0571,0,0,0,0,0,0,0,0,0,0,0,0,0,0.0551,0.055,0.0546,0.0546,0.0547,0.0553,0.0553,0.0553,0.0565,0.0565,0.0566,0.0566,0.0571,0.0571,0.0571,0,0,0,0,0,0,0,0,0,0,0,0,0,0.0551,0.055,0.0546,0.0554,0.0555,0.0553,0.0553,0.0553,0.0565,0.0565,0.0566,0.0566,0.0571,0.0571,0.0571,0.0559,0,0,0.057,0.057,0,0,0,0,0,0,0,0,0.0551,0.0551,0.0553,0.0554,0.0555,0.056,0.0556,0.0555,0.0565,0.056,0.0566,0.0567,0.0567,0.0567,0.0566,0.0559,0.0559,0.057,0.057,0.0569,0.0569,0,0,0,0,0,0,0,0.0551,0.0551,0.0548,0.0553,0.0554,0.056,0.056,0.0556,0.056,0.0561,0.0562,0.0564,0.0568,0.0566,0.0566,0.0559,0.057,0.057,0.0569,0.0569,0.0605,0.0606,0,0,0,0,0,0,0.0551,0.055,0.0548,0.0548,0.0555,0.0559,0.056,0.0557,0.056,0.0561,0.0564,0.0565,0.0566,0.0567,0.0566,0.0598,0.0569,0.0569,0.0569,0.0604,0.0605,0.0607,0,0,0,0,0,0,0.0551,0.0551,0.0547,0.0551,0.0551,0.0559,0.0555,0.0557,0.057,0.0563,0.0564,0.0578,0.0567,0.0567,0.0575,0.0596,0.0569,0.0569,0.0603,0.0605,0.0606,0.0631,0,0,0,0,0,0,0.0551,0.055,0.0557,0.055,0.0551,0.0556,0.0555,0.0556,0.057,0.0572,0.0575,0.0575,0.0567,0.0576,0.0575,0.0595,0.0569,0.0601,0.0604,0.0606,0.0629,0.0633,0.0637,0,0,0,0,0,0.0551,0.0554,0.0557,0.0557,0.0556,0.0556,0.0557,0.0563,0.0571,0.0577,0.0581,0.0575,0.0589,0.0576,0.0575,0.0596,0.06,0.0603,0.0605,0.0627,0.0632,0.0637,0,0,0,0,0,0,0.056,0.0556,0.0559,0.0561,0.0564,0.0559,0.0569,0.0572,0.0579,0.0588,0.058,0.058,0.06,0.0594,0.058,0.0615,0.0598,0.0601,0.0615,0.062,0.0624,0.0627,0.0568,0,0,0,0,0,0.0564,0.0567,0.0563,0.0568,0.0571,0.0573,0.0578,0.0584,0.0586,0.0591,0.0593,0.06,0.0607,0.061,0.0616,0.0625,0.0625,0.0642,0.0647,0.065,0.0653,0.0676,0.0682,0.0615,0.0615,0.0615,0,0,0.0569,0.0569,0.0571,0.0571,0.0576,0.058,0.0578,0.0591,0.0599,0.0589,0.0607,0.0615,0.0614,0.0631,0.064,0.0628,0.0669,0.0653,0.0656,0.0658,0.0679,0.0686,0.0691,0.0617,0.0616,0.0616,0,0,0.0577,0.0581,0.0586,0.0589,0.0599,0.0599,0.0606,0.0612,0.062,0.0635,0.0636,0.0656,0.0662,0.0667,0.0669,0.07,0.0693,0.0708,0.0726,0.0747,0.0753,0.0758,0.0759,0.0764,0.0706,0.0706,0.0706,0,0.0587,0.0587,0.0589,0.0594,0.0599,0.0608,0.0615,0.0622,0.0633,0.0643,0.0649,0.0678,0.0681,0.0696,0.0711,0.071,0.0713,0.0703,0.0752,0.0757,0.0761,0.0762,0.0767,0.0708,0.0708,0.0707,0.0707,0,0.0592,0.0599,0.0604,0.0611,0.0617,0.0627,0.0634,0.0651,0.0668,0.0677,0.0708,0.0715,0.0735,0.0742,0.0735,0.077,0.0759,0.0756,0.0736,0.077,0.0768,0.0773,0.071,0.0709,0.0709,0.0709,0,0,0.0594,0.0604,0.0609,0.0613,0.0628,0.063,0.0651,0.0666,0.0685,0.071,0.0734,0.0758,0.0776,0.078,0.0781,0.0796,0.0832,0.0792,0.0792,0.0787,0.0868,0.0755,0.0749,0.0839,0.084,0.0841,0.0851,0,0.0599,0.0609,0.0614,0.0627,0.063,0.0646,0.066,0.0681,0.0705,0.0732,0.0755,0.0783,0.0785,0.0804,0.0822,0.0836,0.0847,0.0828,0.0842,0.0842,0.0732,0.0751,0.0844,0.0854,0.0855,0.0856,0.0857,0,0.0599,0.0605,0.0617,0.063,0.0634,0.0648,0.0676,0.0692,0.0731,0.0754,0.0792,0.0811,0.085,0.0844,0.0885,0.0875,0.0877,0.0878,0.0878,0.0767,0.0737,0.0817,0.0865,0.0864,0.0864,0.0863,0.0863,0,0.0588,0.0604,0.0614,0.0619,0.0638,0.0654,0.0672,0.0707,0.0724,0.0778,0.0803,0.0847,0.0878,0.0899,0.0909,0.0909,0.0935,0.0936,0.0829,0.082,0.0909,0.0903,0.0956,0.0956,0.0956,0.0956,0.0956,0,0.058,0.0589,0.0614,0.0619,0.0636,0.0655,0.0683,0.0709,0.0749,0.0769,0.0822,0.0837,0.0897,0.0914,0.0919,0.088,0.0949,0.083,0.0817,0.0918,0.0914,0.0911,0.0906,0.0956,0.0956,0.0956,0.0956,0,0.0562,0.058,0.0591,0.0619,0.0631,0.0647,0.0685,0.0699,0.075,0.0779,0.08,0.0851,0.0869,0.0893,0.092,0.088,0.0863,0.0826,0.0921,0.0913,0.0732,0.0728,0.0718,0.0714,0.0711,0.0708,0.0706,0,0.0551,0.0557,0.059,0.0596,0.0613,0.064,0.0652,0.0698,0.0707,0.0768,0.0769,0.0809,0.0831,0.0786,0.0813,0.0796,0.0777,0.0761,0.0755,0.072,0.0709,0.071,0.071,0.0701,0.07,0.0699,0.0698,0,0.0529,0.0551,0.0561,0.0574,0.0589,0.0594,0.0616,0.0619,0.0665,0.0722,0.0721,0.0719,0.072,0.0725,0.0706,0.0695,0.0774,0.0727,0.0734,0.0728,0.0699,0.0691,0.0695,0.0687,0.0689,0.069,0.069,0,0.0519,0.0519,0.0535,0.0541,0.0553,0.0534,0.0554,0.0555,0.0573,0.064,0.0635,0.0672,0.0719,0.0669,0.0655,0.0628,0.0615,0.059,0.0604,0.0617,0.0572,0.0519,0.0438,0,0,0,0,0,0.0502,0.0493,0.0494,0.0486,0.0493,0.0498,0.0515,0.0533,0.0584,0.0562,0.0597,0.0593,0.0569,0.0582,0.053,0.0583,0.0607,0.0516,0.0585,0.0624,0.0637,0.0589,0,0,0,0,0,0,0.0487,0.0492,0.0481,0.0439,0.0424,0.0417,0.0428,0.0458,0.0445,0.0507,0.0502,0.0541,0.0531,0.0601,0.0521,0.0519,0.054,0.0534,0.0531,0.0616,0.0628,0.0639,0.0594,0,0,0,0,0]},{"header":{"parameterUnit":"m.s-1","parameterCategory":2,"la1":30.2991,"la2":30.254,"lo1":-89.0895,"lo2":-89.0444,"dy":0.0017,"dx":0.0017,"nx":28,"ny":28,"refTime":"2026-01-01T03:00:00:Z","depth":"4","parameterNumber":3,"parameterNumberName":"V-component_of_CURRENTS"},"data":[0,0,0,0,0,0,0,0,0,0,0,0,0,0,0,0,0,0,0,0,0,0,0,0,0,0,0,0,0,0,0,0,0,0,0,0,0,0,0,0,0,0,0,0,0,0,0,0,0,0,0,0,0,0,0,0,0,0,0.0124,0.0124,0,0.0132,0.0132,0.0132,0.0141,0.0142,0.0142,0.0142,0.0154,0.0154,0.0154,0,0,0,0,0,0,0,0,0,0,0,0,0,0.0108,0.0108,0.0124,0.0124,0.0124,0.0132,0.0132,0.0132,0.0141,0.0142,0.0142,0.0142,0.0154,0.0154,0.0154,0,0,0,0,0,0,0,0,0,0,0,0,0,0.0115,0.0108,0.0124,0.0129,0.013,0.0132,0.0132,0.0132,0.0141,0.0142,0.0142,0.0142,0.0154,0.0154,0.0154,0.0154,0,0,0.0155,0.0156,0,0,0,0,0,0,0,0,0.0115,0.0116,0.0128,0.0129,0.0129,0.0136,0.0131,0.014,0.0141,0.0137,0.0142,0.0142,0.0148,0.0149,0.015,0.0154,0.0155,0.0155,0.0156,0.0156,0.0156,0,0,0,0,0,0,0,0.0115,0.0116,0.0127,0.0128,0.0129,0.0128,0.013,0.0133,0.0142,0.0138,0.0138,0.0139,0.0148,0.015,0.0151,0.0155,0.0155,0.0156,0.0156,0.0156,0.0169,0.0169,0,0,0,0,0,0,0.0113,0.0115,0.0127,0.0128,0.0122,0.0129,0.013,0.0134,0.0142,0.0143,0.0138,0.0139,0.0149,0.015,0.0151,0.0163,0.0156,0.0156,0.0156,0.0169,0.0169,0.0169,0,0,0,0,0,0,0.0113,0.0114,0.0127,0.0121,0.0123,0.0129,0.0133,0.0134,0.0138,0.0142,0.0144,0.0142,0.0149,0.0151,0.0157,0.0163,0.0156,0.0157,0.0169,0.0169,0.0169,0.0178,0,0,0,0,0,0,0.0112,0.0114,0.0117,0.0121,0.0123,0.013,0.0132,0.0134,0.0138,0.0139,0.0146,0.0147,0.015,0.0156,0.0157,0.0163,0.0157,0.0169,0.0169,0.0169,0.0177,0.0178,0.0179,0,0,0,0,0,0.0112,0.0114,0.0117,0.0118,0.0126,0.013,0.0131,0.0136,0.0138,0.014,0.0146,0.0147,0.0158,0.0157,0.0158,0.0164,0.0168,0.0169,0.0169,0.0177,0.0178,0.0179,0,0,0,0,0,0,0.0107,0.0115,0.0118,0.0123,0.0127,0.0131,0.0133,0.0137,0.0143,0.0144,0.0149,0.015,0.0158,0.0158,0.0156,0.0168,0.0164,0.0164,0.0169,0.017,0.0171,0.0177,0.0157,0,0,0,0,0,0.0107,0.0113,0.0118,0.0122,0.0124,0.0129,0.0132,0.0135,0.014,0.0143,0.0148,0.0153,0.0159,0.0163,0.0167,0.0173,0.0167,0.0177,0.0178,0.0178,0.0184,0.0179,0.018,0.017,0.017,0.017,0,0,0.0106,0.0111,0.0114,0.0122,0.0125,0.0131,0.0131,0.0135,0.0143,0.0143,0.0154,0.0156,0.0161,0.0169,0.0172,0.0171,0.0177,0.0179,0.018,0.0185,0.0179,0.018,0.0181,0.017,0.017,0.017,0,0,0.0106,0.0112,0.0117,0.0122,0.0128,0.0132,0.0134,0.014,0.0146,0.0154,0.0157,0.0163,0.0171,0.0177,0.018,0.0188,0.0181,0.0188,0.0198,0.0194,0.0194,0.0195,0.0182,0.0181,0.0189,0.0189,0.0189,0,0.0104,0.0114,0.0118,0.0124,0.0131,0.0133,0.0141,0.0146,0.0154,0.0162,0.0159,0.0174,0.0176,0.019,0.0193,0.0191,0.0183,0.0194,0.0195,0.0195,0.0196,0.0182,0.0181,0.0189,0.0189,0.0189,0.0189,0,0.0109,0.0118,0.0121,0.0133,0.0139,0.0145,0.0154,0.0161,0.0167,0.0174,0.0187,0.0188,0.02,0.0199,0.0199,0.0207,0.0198,0.0196,0.0192,0.0198,0.0182,0.0181,0.019,0.019,0.019,0.019,0,0,0.0104,0.0121,0.0123,0.0134,0.0146,0.0153,0.0166,0.0181,0.0195,0.0198,0.0215,0.022,0.0222,0.0226,0.0225,0.022,0.0212,0.021,0.021,0.0197,0.0194,0.0183,0.018,0.0209,0.0209,0.0209,0.0179,0,0.0108,0.0123,0.0132,0.015,0.016,0.0171,0.0186,0.02,0.021,0.0226,0.0228,0.0243,0.0232,0.0241,0.0233,0.0223,0.0212,0.022,0.0191,0.019,0.018,0.018,0.021,0.0178,0.0178,0.0178,0.0178,0,0.0112,0.0124,0.0141,0.0167,0.0173,0.0185,0.0214,0.0228,0.0248,0.0257,0.0269,0.0271,0.0275,0.0261,0.0241,0.0247,0.0222,0.0205,0.0204,0.0192,0.0178,0.0174,0.0176,0.0176,0.0176,0.0176,0.0177,0,0.0109,0.0131,0.0148,0.0155,0.0182,0.0197,0.0215,0.0239,0.026,0.0281,0.0298,0.0296,0.0303,0.0276,0.0245,0.0244,0.0212,0.0207,0.0169,0.0168,0.0183,0.0183,0.0184,0.0184,0.0184,0.0184,0.0185,0,0.0112,0.0125,0.0149,0.0159,0.0186,0.0204,0.0237,0.0254,0.0285,0.0315,0.0317,0.0332,0.0308,0.0289,0.0251,0.0209,0.0217,0.0172,0.0162,0.0186,0.0186,0.0182,0.0182,0.0183,0.0184,0.0184,0.0184,0,0.0106,0.0121,0.0142,0.0172,0.0185,0.0206,0.0255,0.028,0.0308,0.0346,0.0356,0.0362,0.0338,0.0301,0.0255,0.0222,0.0178,0.0156,0.018,0.0172,0.0133,0.0134,0.0116,0.0116,0.0115,0.0115,0.0114,0,0.0103,0.0113,0.0149,0.0167,0.0183,0.0219,0.0248,0.0288,0.0319,0.0362,0.0379,0.0371,0.0366,0.0291,0.0247,0.0173,0.0159,0.0135,0.0138,0.0135,0.0127,0.0129,0.0131,0.0114,0.0114,0.0113,0.0113,0,0.0098,0.0112,0.0131,0.0167,0.0199,0.0239,0.0284,0.0309,0.0359,0.0382,0.0398,0.0373,0.0343,0.0287,0.0229,0.0176,0.0154,0.0129,0.013,0.0133,0.0132,0.0125,0.0127,0.0112,0.0112,0.0112,0.0112,0,0.0095,0.0107,0.0134,0.0168,0.0208,0.0252,0.0277,0.0318,0.0351,0.04,0.0399,0.0375,0.0364,0.0287,0.0234,0.0183,0.0168,0.0149,0.0149,0.015,0.0169,0.0173,0.0158,0,0,0,0,0,0.0092,0.0108,0.0135,0.0176,0.0217,0.0244,0.0299,0.0326,0.0372,0.0384,0.0396,0.0367,0.0304,0.0277,0.0222,0.0216,0.0153,0.015,0.013,0.0102,0.0104,0.012,0,0,0,0,0,0,0.0091,0.0114,0.013,0.0179,0.0209,0.0259,0.0296,0.0328,0.0338,0.0371,0.0334,0.0342,0.0273,0.0328,0.0215,0.0202,0.018,0.0126,0.0124,0.0101,0.0103,0.0104,0.0121,0,0,0,0,0]}]]